Flag for U.S.A. Weather past 2 weeks in Clovis, New Mexico, U.S.A.

Now
68 °F

Passing clouds.


Feels Like: 68 °F
Forecast: 64 / 84 °F
Wind: 5 mph from Southeast

Location: Cannon Air Force Base / Clovis

Current Time: Jul 30, 2014 at 12:19:21 AM

Latest Report: Jul 29, 2014 at 11:58 PM


Visibility: 10 mi

Pressure: 30.02 "Hg

Humidity: 88%

Dew point: 64 °F

Location of ClovisLocation

Historic Weather in Clovis — Graph

°F

Clovis temperature yesterday

Maximum temperature yesterday: 80 °F (at 4:58 PM)
Minimum temperature yesterday: 63 °F (at 9:58 AM)
Average temperature yesterday: 69 °F

Past Weeks' High & Low Weather Summary

 TemperatureHumidityPressure
High98 °F (Jul 25, 4:58 PM)100% (Jul 14, 10:58 PM)30.32 "Hg (Jul 14, 10:58 PM)
Low61 °F (Jul 15, 5:58 AM)20% (Jul 25, 4:03 PM)29.73 "Hg (Jul 16, 4:58 PM)
Average76 °F63%29.98 "Hg
* Reported Jul 14 10:58 PM — Jul 29 10:58 PM, Clovis, Weather by CustomWeather, © 2014

Note: Actual official high and low records may vary slightly from our data, if they occured in-between our weather recording intervals... More about our weather records

Advertising

Clovis weather history for previous 24 hours

 ConditionsComfort  
Time TempWeatherWind HumidityBarometerVisibility
10:58 PM
Jul 29
68 °FPassing clouds.6 mph88%30.03 "Hg10 mi
9:58 PM70 °FClear.7 mph83%30.05 "Hg10 mi
8:58 PM70 °FPassing clouds.7 mphN/A30.02 "Hg10 mi
7:58 PM72 °FSunny.9 mph86%30.00 "Hg10 mi
6:58 PM74 °FSunny.12 mph76%30.00 "Hg10 mi
5:58 PM77 °FSunny.13 mph65%29.99 "Hg10 mi
4:58 PM80 °FSunny.13 mph64%30.00 "Hg10 mi
3:58 PM78 °FSunny.10 mph76%30.02 "Hg10 mi
2:58 PM74 °FScattered clouds.9 mph86%30.05 "Hg10 mi
1:58 PM72 °FCloudy.9 mph73%30.08 "Hg10 mi
12:58 PM68 °FCloudy.10 mph88%30.11 "Hg10 mi
11:55 AM65 °FLight rain. Mostly cloudy.10 mph99%30.20 "Hg10 mi
10:58 AM64 °FRain. More clouds than sun.13 mph100%30.18 "Hg7 mi
9:58 AM63 °FRain. Low clouds.9 mphN/A30.16 "Hg4 mi
8:58 AM64 °FRain showers. Fog.6 mph100%30.32 "Hg2 mi
7:58 AM66 °FLots of rain. Fog.6 mph100%30.16 "Hg2 mi
6:58 AM66 °FPartly cloudy.5 mph94%30.15 "Hg5 mi
5:58 AM66 °FLight rain. Passing clouds.5 mph94%30.11 "Hg7 mi
4:58 AM66 °FDrizzle. Mostly cloudy.8 mph94%30.11 "Hg10 mi
3:58 AM66 °FClear.5 mph94%30.28 "Hg10 mi
2:58 AM66 °FPassing clouds.7 mph94%30.10 "Hg10 mi
1:58 AM68 °FThundershowers. Passing clouds.9 mph88%30.10 "Hg10 mi
12:58 AM68 °FPassing clouds.9 mph88%30.28 "Hg10 mi
Weather by CustomWeather, © 2014

See weather overviewHow to use our weather pages